• In Hungary
  • List of Countries
  • For 7 days
  • Water Temperature
  • Satellite Maps
  • Weather Map
  • News
  • Weather Widgets
  • user-avatar
    Login

    Hourly Weather Kuznechki

    Today, 22 July, Sunday

    Time Temperature Precipitation Wind Pressure Humidity
    00:00 +20°C° 0 mm 1 mps 736 mmHg 96%
    01:00 +20°C° 0 mm 1 mps 736 mmHg 96%
    02:00 +19°C° 0 mm 1 mps 736 mmHg 97%
    03:00 +20°C° 0 mm 1 mps 736 mmHg 97%
    04:00 +20°C° 0 mm 1 mps 736 mmHg 97%
    05:00 +20°C° 0 mm 1 mps 736 mmHg 97%
    06:00 +21°C° 0.4 mm 1 mps 736 mmHg 95%
    07:00 +21°C° 0.4 mm 2 mps 736 mmHg 93%
    08:00 +23°C° 0.4 mm 2 mps 737 mmHg 91%
    09:00 +24°C° 1.2 mm 2 mps 737 mmHg 89%
    10:00 +24°C° 1.2 mm 3 mps 737 mmHg 86%
    11:00 +25°C° 1.2 mm 3 mps 737 mmHg 84%
    12:00 +25°C° 0.7 mm 3 mps 737 mmHg 83%
    13:00 +24°C° 0.7 mm 3 mps 737 mmHg 83%
    14:00 +25°C° 0 mm 3 mps 737 mmHg 80%
    15:00 +24°C° 0.2 mm 3 mps 737 mmHg 80%
    16:00 +24°C° 0.2 mm 3 mps 737 mmHg 79%
    17:00 +24°C° 0.2 mm 3 mps 737 mmHg 78%
    18:00 +23°C° 0 mm 2 mps 737 mmHg 84%
    19:00 +21°C° 0 mm 2 mps 737 mmHg 89%
    20:00 +20°C° 0 mm 2 mps 737 mmHg 94%
    21:00 +19°C° 0 mm 2 mps 737 mmHg 95%
    22:00 +19°C° 0 mm 2 mps 737 mmHg 97%
    23:00 +18°C° 0 mm 2 mps 737 mmHg 98%

    Tomorrow, 23 July, Monday

    Time Temperature Precipitation Wind Pressure Humidity
    00:00 +18°C° 0 mm 2 mps 737 mmHg 98%
    01:00 +18°C° 0 mm 2 mps 737 mmHg 98%
    02:00 +17°C° 0 mm 2 mps 737 mmHg 98%
    03:00 +17°C° 0 mm 2 mps 737 mmHg 98%
    04:00 +17°C° 0 mm 2 mps 737 mmHg 98%
    05:00 +17°C° 0 mm 2 mps 737 mmHg 97%
    06:00 +19°C° 0 mm 2 mps 737 mmHg 92%
    07:00 +20°C° 0 mm 3 mps 738 mmHg 86%
    08:00 +21°C° 0 mm 3 mps 738 mmHg 80%
    09:00 +22°C° 0.1 mm 3 mps 738 mmHg 79%
    10:00 +22°C° 0.1 mm 3 mps 738 mmHg 79%
    11:00 +22°C° 0.1 mm 3 mps 738 mmHg 78%
    12:00 +22°C° 0.1 mm 3 mps 738 mmHg 75%
    13:00 +23°C° 0.1 mm 4 mps 738 mmHg 71%
    14:00 +23°C° 0.1 mm 4 mps 738 mmHg 68%
    15:00 +24°C° 0 mm 3 mps 738 mmHg 69%
    16:00 +24°C° 0 mm 3 mps 738 mmHg 70%
    17:00 +24°C° 0 mm 3 mps 738 mmHg 71%
    18:00 +22°C° 0 mm 3 mps 738 mmHg 78%
    19:00 +20°C° 0 mm 2 mps 738 mmHg 85%
    20:00 +19°C° 0 mm 2 mps 738 mmHg 91%
    21:00 +18°C° 0 mm 2 mps 738 mmHg 93%
    22:00 +17°C° 0 mm 2 mps 739 mmHg 95%
    23:00 +17°C° 0 mm 2 mps 739 mmHg 97%

    Day after tomorrow, 24 July, Tuesday

    Time Temperature Precipitation Wind Pressure Humidity
    00:00 +16°C° 0 mm 2 mps 739 mmHg 98%
    01:00 +16°C° 0 mm 2 mps 739 mmHg 98%
    02:00 +16°C° 0 mm 2 mps 739 mmHg 98%
    03:00 +16°C° 0 mm 2 mps 739 mmHg 98%
    04:00 +16°C° 0 mm 2 mps 739 mmHg 97%
    05:00 +16°C° 0 mm 2 mps 739 mmHg 97%
    06:00 +17°C° 0 mm 3 mps 739 mmHg 93%
    07:00 +18°C° 0 mm 3 mps 739 mmHg 89%
    08:00 +19°C° 0 mm 3 mps 739 mmHg 86%
    09:00 +19°C° 0 mm 3 mps 739 mmHg 83%
    10:00 +20°C° 0 mm 3 mps 739 mmHg 79%
    11:00 +21°C° 0 mm 3 mps 740 mmHg 76%
    12:00 +22°C° 0 mm 3 mps 740 mmHg 76%
    13:00 +22°C° 0 mm 3 mps 739 mmHg 76%
    14:00 +22°C° 0 mm 3 mps 739 mmHg 76%
    15:00 +22°C° 0.1 mm 3 mps 739 mmHg 77%
    16:00 +22°C° 0.1 mm 3 mps 739 mmHg 78%
    17:00 +22°C° 0.1 mm 3 mps 739 mmHg 79%
    18:00 +21°C° 0 mm 3 mps 740 mmHg 83%
    19:00 +20°C° 0 mm 2 mps 740 mmHg 88%
    20:00 +19°C° 0 mm 2 mps 740 mmHg 93%
    21:00 +19°C° 0 mm 2 mps 740 mmHg 95%
    22:00 +18°C° 0 mm 2 mps 740 mmHg 96%
    23:00 +17°C° 0 mm 2 mps 740 mmHg 98%

    25 July, Wednesday

    Time Temperature Precipitation Wind Pressure Humidity
    00:00 +17°C° 0 mm 2 mps 740 mmHg 98%
    01:00 +17°C° 0 mm 2 mps 740 mmHg 98%
    02:00 +17°C° 0 mm 2 mps 740 mmHg 98%
    03:00 +17°C° 0.1 mm 2 mps 740 mmHg 98%
    04:00 +17°C° 0.1 mm 2 mps 740 mmHg 98%
    05:00 +18°C° 0.1 mm 2 mps 740 mmHg 98%
    06:00 +19°C° 0.1 mm 2 mps 740 mmHg 95%
    07:00 +20°C° 0.1 mm 2 mps 741 mmHg 93%
    08:00 +21°C° 0.1 mm 3 mps 741 mmHg 90%
    09:00 +22°C° 0.2 mm 3 mps 741 mmHg 87%
    10:00 +24°C° 0.2 mm 3 mps 741 mmHg 83%
    11:00 +25°C° 0.2 mm 4 mps 741 mmHg 79%
    12:00 +25°C° 0.4 mm 4 mps 741 mmHg 75%
    13:00 +23°C° 0.4 mm 4 mps 741 mmHg 71%
    14:00 +23°C° 0.4 mm 5 mps 741 mmHg 67%
    15:00 +22°C° 0.1 mm 4 mps 742 mmHg 69%
    16:00 +21°C° 0.1 mm 3 mps 742 mmHg 71%
    17:00 +20°C° 0.1 mm 2 mps 742 mmHg 73%
    18:00 +19°C° 0.1 mm 2 mps 742 mmHg 77%
    19:00 +19°C° 0.1 mm 3 mps 742 mmHg 81%
    20:00 +18°C° 0.1 mm 3 mps 742 mmHg 85%
    21:00 +18°C° 0 mm 3 mps 741 mmHg 87%
    22:00 +18°C° 0 mm 3 mps 741 mmHg 89%
    23:00 +19°C° 0 mm 3 mps 741 mmHg 90%

    26 July, Thursday

    Time Temperature Precipitation Wind Pressure Humidity
    00:00 +18°C° 0 mm 3 mps 741 mmHg 92%
    01:00 +18°C° 0 mm 3 mps 741 mmHg 93%
    02:00 +17°C° 0 mm 3 mps 741 mmHg 94%
    03:00 +17°C° 0.2 mm 3 mps 741 mmHg 92%
    04:00 +17°C° 0.2 mm 3 mps 741 mmHg 90%
    05:00 +17°C° 0.2 mm 3 mps 741 mmHg 88%
    06:00 +18°C° 0.3 mm 4 mps 741 mmHg 86%
    07:00 +19°C° 0.3 mm 4 mps 741 mmHg 84%
    08:00 +20°C° 0.3 mm 4 mps 741 mmHg 82%
    09:00 +21°C° 0.1 mm 4 mps 741 mmHg 80%
    10:00 +22°C° 0.1 mm 4 mps 742 mmHg 77%
    11:00 +23°C° 0.1 mm 4 mps 742 mmHg 75%
    12:00 +25°C° 0.1 mm 4 mps 742 mmHg 72%
    13:00 +26°C° 0.1 mm 4 mps 742 mmHg 70%
    14:00 +27°C° 0.1 mm 4 mps 742 mmHg 68%
    15:00 +26°C° 0.6 mm 3 mps 742 mmHg 74%
    16:00 +26°C° 0.6 mm 3 mps 742 mmHg 80%
    17:00 +25°C° 0.6 mm 2 mps 742 mmHg 86%
    18:00 +24°C° 0.5 mm 2 mps 742 mmHg 88%
    19:00 +23°C° 0.5 mm 2 mps 742 mmHg 90%
    20:00 +21°C° 0.5 mm 2 mps 742 mmHg 92%
    21:00 +21°C° 0.6 mm 2 mps 742 mmHg 93%
    22:00 +21°C° 0.6 mm 2 mps 742 mmHg 94%
    23:00 +20°C° 0.6 mm 2 mps 743 mmHg 95%

    27 July, Friday

    Time Temperature Precipitation Wind Pressure Humidity
    00:00 +20°C° 0.2 mm 2 mps 743 mmHg 96%
    01:00 +20°C° 0.2 mm 2 mps 743 mmHg 97%
    02:00 +20°C° 0.2 mm 2 mps 743 mmHg 97%
    03:00 +20°C° 0 mm 2 mps 743 mmHg 97%
    04:00 +20°C° 0 mm 2 mps 743 mmHg 97%
    05:00 +20°C° 0 mm 2 mps 743 mmHg 97%
    06:00 +21°C° 0 mm 3 mps 744 mmHg 94%
    07:00 +22°C° 0 mm 3 mps 744 mmHg 90%
    08:00 +24°C° 0 mm 3 mps 744 mmHg 87%
    09:00 +26°C° 0 mm 3 mps 744 mmHg 77%
    10:00 +28°C° 0 mm 4 mps 744 mmHg 67%
    11:00 +30°C° 0 mm 4 mps 744 mmHg 58%
    12:00 +30°C° 0 mm 4 mps 744 mmHg 55%
    13:00 +32°C° 0 mm 4 mps 744 mmHg 52%
    14:00 +32°C° 0 mm 4 mps 744 mmHg 49%
    15:00 +30°C° 0 mm 4 mps 744 mmHg 53%
    16:00 +29°C° 0 mm 4 mps 744 mmHg 56%
    17:00 +28°C° 0 mm 4 mps 744 mmHg 60%
    18:00 +26°C° 1.2 mm 3 mps 744 mmHg 69%
    19:00 +25°C° 1.2 mm 3 mps 744 mmHg 79%
    20:00 +23°C° 1.2 mm 2 mps 744 mmHg 88%
    21:00 +21°C° 1 mm 2 mps 745 mmHg 90%
    22:00 +21°C° 1 mm 2 mps 745 mmHg 92%
    23:00 +21°C° 1 mm 2 mps 745 mmHg 94%
    Show more